This demonstration page uses our WeatherBlox Daily Observations layout. Learn more.

Left ArrowRight Arrow

34.16533, -84.80231

Hourly Observations for October 9, 2019

Temp ( °F °C ) Dew Point ( °F °C ) Humidity (%) Winds ( mph kmh ) Pressure ( in mb ) Visibility ( mi km ) Precip ( " mm )
12:18 am 00:18 Mostly Cloudy 70 21.1 65 18.3 84 84 Calm 30.05 1018 10 16 0.00 0.00
12:53 am 00:53 Cloudy 71 21.7 65 18.3 81 81 VRB 3 6 30.04 1017 10 16 0.00 0.00
1:53 am 01:53 Cloudy 71 21.7 64 17.8 79 79 VRB 7 11 30.04 1017 10 16 0.00 0.00
3:20 am 03:20 Cloudy 69 20.6 62 16.7 78 78 E 10 17 30.06 1018 10 16 0.00 0.00
3:53 am 03:53 Cloudy 69 20.6 61 16.1 76 76 VRB 5 7 30.04 1017 10 16 0.00 0.00
4:53 am 04:53 Cloudy 68 20 60 15.6 76 76 E 7 11 30.05 1018 10 16 0.00 0.00
5:53 am 05:53 Cloudy 68 20 60 15.6 76 76 E 5 7 30.06 1018 10 16 0.00 0.00
6:53 am 06:53 Cloudy 67 19.4 59 15 76 76 VRB 6 9 30.09 1019 10 16 0.00 0.00
7:53 am 07:53 Cloudy 67 19.4 60 15.6 79 79 VRB 3 6 30.10 1019 10 16 0.00 0.00
8:53 am 08:53 Cloudy 68 20 60 15.6 76 76 VRB 6 9 30.11 1020 10 16 0.00 0.00
9:53 am 09:53 Cloudy 69 20.6 60 15.6 73 73 E 3 6 30.14 1021 10 16 0.00 0.00
10:53 am 10:53 Cloudy 69 20.6 60 15.6 73 73 ESE 7 11 30.14 1021 10 16 0.00 0.00
11:53 am 11:53 Cloudy 70 21.1 60 15.6 71 71 VRB 6 9 30.14 1021 10 16 0.00 0.00
12:53 pm 12:53 Cloudy 73 22.8 60 15.6 64 64 ESE 8 13 30.13 1020 10 16 0.00 0.00
1:53 pm 13:53 Mostly Cloudy 75 23.9 60 15.6 60 60 E 8 13 30.11 1020 10 16 0.00 0.00
2:00 pm 14:00 Mostly Cloudy 75 23.9 60 15.6 60 60 VRB 6 9 30.11 1020 10 16 0.00 0.00
2:53 pm 14:53 Cloudy 76 24.4 61 16.1 60 60 VRB 5 7 30.08 1019 10 16 0.00 0.00
3:28 pm 15:28 Cloudy 76 24.4 61 16.1 60 60 VRB 5 7 30.08 1019 10 16 0.00 0.00
3:53 pm 15:53 Cloudy 76 24.4 61 16.1 60 60 SE 7 11 30.07 1018 10 16 0.00 0.00
4:53 pm 16:53 Cloudy 76 24.4 60 15.6 58 58 ENE 7 11 30.06 1018 10 16 0.00 0.00
5:53 pm 17:53 Sunny 75 23.9 60 15.6 60 60 ESE 8 13 30.06 1018 10 16 0.00 0.00
6:53 pm 18:53 Sunny 73 22.8 60 15.6 64 64 Calm 30.06 1018 10 16 0.00 0.00
7:53 pm 19:53 Clear 69 20.6 60 15.6 73 73 E 3 6 30.07 1018 10 16 0.00 0.00
8:53 pm 20:53 Clear 67 19.4 60 15.6 79 79 E 3 6 30.08 1019 10 16 0.00 0.00
9:53 pm 21:53 Mostly Clear 66 18.9 59 15 78 78 Calm 30.10 1019 10 16 0.00 0.00
10:53 pm 22:53 Mostly Cloudy 65 18.3 59 15 81 81 Calm 30.11 1020 10 16 0.00 0.00
11:53 pm 23:53 Mostly Clear 65 18.3 59 15 81 81 E 3 6 30.11 1020 10 16 0.00 0.00

Powered by AerisWeather